Weather History for EGLL - June, 2014

Change the Weather History Date:

Friday, June 13, 2014

  Actual Average Record
Temperature  
Mean Temperature 67 °F -  
Max Temperature 79 °F 69 °F 79 °F (2014)
Min Temperature 55 °F 53 °F 44 °F (2005)
Cooling Degree Days 2    
Growing Degree Days 17 (Base 50)    
Moisture  
Dew Point 52 °F    
Average Humidity 52    
Maximum Humidity 82    
Minimum Humidity 27    
Precipitation  
Precipitation 0.00 in - - ()
Sea Level Pressure  
Sea Level Pressure 30.26 in    
Wind  
Wind Speed 6 mph ()    
Max Wind Speed 10 mph    
Max Gust Speed -    
Visibility 11.6 miles    
Events      
Averages and records for this station are not official NWS values.
T = Trace of Precipitation, MM = Missing Value Source: Averaged Metar Reports

Daily Weather History Graph

Daily Weather History Graph

Search for Another Location

Airport or City:

Trip Planner

Search our weather history database for the weather conditions in past years. The results will help you decide how hot, cold, wet, or windy it might be!

Date:

Astronomy

Jun. 13, 2014 Rise Set
Actual Time 4:44 AM BST 9:19 PM BST
Civil Twilight 3:57 AM BST 10:06 PM BST
Nautical Twilight 2:44 AM BST 11:20 PM BST
Astronomical Twilight 1:34 AM BST 12:29 AM BST
Moon 9:24 PM BST (6/13) 5:19 AM BST (6/13)
Length of Visible Light 18h 09m
Length of Day
16h 34m
Full, 100% of the Moon is Illuminated
Jun 13
Full
Jun 19
Last Quarter
Jun 27
New
Jul 5
First Quarter
Jul 12
Full

Hourly Weather History & Observations

Time (BST) Temp. Dew Point Humidity Pressure Visibility Wind Dir Wind Speed Gust Speed Precip Events Conditions
12:00 AM 65 °F 51 °F 51% 30.32 in 12 mi SSE 10.4 mph - -   Partly Cloudy
12:20 AM 64.4 °F 51.8 °F 64% 30.30 in - NNW 3.5 mph - N/A   Clear
12:50 AM 62.6 °F 51.8 °F 68% 30.30 in - Variable 2.3 mph - N/A   Clear
1:00 AM 63 °F 52 °F 58% 30.31 in 14 mi SSE 10.4 mph - -  
1:20 AM 62.6 °F 51.8 °F 68% 30.30 in 6.2 mi Variable 2.3 mph - N/A   Unknown
1:50 AM 60.8 °F 51.8 °F 72% 30.30 in 6.2 mi West 3.5 mph - N/A   Unknown
2:00 AM 60 °F 51 °F 65% 30.31 in 13 mi SSE 10.4 mph - -  
2:20 AM 60.8 °F 51.8 °F 72% 30.30 in 6.2 mi NW 3.5 mph - N/A   Unknown
2:50 AM 60.8 °F 51.8 °F 72% 30.30 in - WNW 3.5 mph - N/A   Clear
3:00 AM 58 °F 52 °F 75% 30.30 in 9 mi SSE 10.4 mph - -  
3:20 AM 59.0 °F 51.8 °F 77% 30.27 in - NW 3.5 mph - N/A   Clear
3:50 AM 59.0 °F 51.8 °F 77% 30.27 in - NW 4.6 mph - N/A   Clear
4:00 AM 58 °F 51 °F 70% 30.29 in 11 mi SSE 10.4 mph - -   Partly Cloudy
4:20 AM 57.2 °F 51.8 °F 82% 30.27 in - NW 4.6 mph - N/A   Clear
4:50 AM 59.0 °F 51.8 °F 77% 30.27 in - West 3.5 mph - N/A   Clear
5:00 AM 56 °F 50 °F 75% 30.28 in 12 mi SSE 10.4 mph - -  
5:20 AM 59.0 °F 51.8 °F 77% 30.27 in - WNW 3.5 mph - N/A   Clear
5:50 AM 59.0 °F 51.8 °F 77% 30.27 in - West 4.6 mph - N/A   Clear
6:00 AM 58 °F 50 °F 68% 30.28 in 11 mi SSE 10.4 mph - -  
6:20 AM 60.8 °F 51.8 °F 72% 30.27 in - WNW 3.5 mph - N/A   Clear
6:50 AM 60.8 °F 51.8 °F 72% 30.27 in - Variable 2.3 mph - N/A   Clear
7:00 AM 60 °F 52 °F 66% 30.29 in 11 mi SSE 10.4 mph - -  
7:20 AM 62.6 °F 51.8 °F 68% 30.30 in - Variable 3.5 mph - N/A   Clear
7:50 AM 66.2 °F 53.6 °F 64% 30.30 in - Variable 3.5 mph - N/A   Clear
8:00 AM 65 °F 52 °F 54% 30.30 in 12 mi SSE 10.4 mph - -  
8:20 AM 66.2 °F 53.6 °F 64% 30.30 in - Variable 3.5 mph - N/A   Clear
8:50 AM 69.8 °F 53.6 °F 56% 30.30 in - North 5.8 mph - N/A   Clear
9:00 AM 69 °F 54 °F 48% 30.30 in 14 mi SSE 10.4 mph - -  
9:20 AM 69.8 °F 55.4 °F 60% 30.30 in - North 5.8 mph - N/A   Clear
9:50 AM 71.6 °F 53.6 °F 53% 30.30 in 6.2 mi NNW 4.6 mph - N/A   Partly Cloudy
10:00 AM 71 °F 53 °F 42% 30.29 in 12 mi SSE 10.4 mph - -  
10:20 AM 71.6 °F 51.8 °F 50% 30.27 in 6.2 mi North 4.6 mph - N/A   Partly Cloudy
10:50 AM 71.6 °F 51.8 °F 50% 30.27 in 6.2 mi North 5.8 mph - N/A   Partly Cloudy
11:00 AM 73 °F 51 °F 36% 30.28 in 17 mi Calm Calm - -   Scattered Clouds
11:20 AM 73.4 °F 51.8 °F 47% 30.27 in 6.2 mi NNW 5.8 mph - N/A   Partly Cloudy
11:50 AM 73.4 °F 51.8 °F 47% 30.27 in 6.2 mi WNW 5.8 mph - N/A   Scattered Clouds
12:00 PM 73 °F 51 °F 35% 30.27 in 17 mi Calm Calm - -   Scattered Clouds
12:20 PM 75.2 °F 51.8 °F 44% 30.27 in 6.2 mi NNW 5.8 mph - N/A   Scattered Clouds
12:50 PM 73.4 °F 51.8 °F 47% 30.27 in 6.2 mi NW 5.8 mph - N/A   Scattered Clouds
1:00 PM 74 °F 51 °F 34% 30.26 in 18 mi Calm Calm - -   Partly Cloudy
1:20 PM 75.2 °F 51.8 °F 44% 30.24 in 6.2 mi NNW 6.9 mph - N/A   Scattered Clouds
1:50 PM 77.0 °F 50.0 °F 39% 30.24 in 6.2 mi NW 5.8 mph - N/A   Partly Cloudy
2:00 PM 76 °F 51 °F 31% 30.25 in 17 mi Calm Calm - -   Scattered Clouds
2:20 PM 77.0 °F 50.0 °F 39% 30.24 in - NW 5.8 mph - N/A   Clear
2:50 PM 77.0 °F 50.0 °F 39% 30.24 in - NW 8.1 mph - N/A   Clear
3:00 PM 78 °F 51 °F 29% 30.24 in 19 mi Calm Calm - -   Scattered Clouds
3:20 PM 77.0 °F 50.0 °F 39% 30.24 in - Variable 6.9 mph - N/A   Clear
3:50 PM 77.0 °F 50.0 °F 39% 30.24 in - NW 6.9 mph - N/A   Clear
4:00 PM 78 °F 52 °F 30% 30.23 in 28 mi Calm Calm - -   Scattered Clouds
4:20 PM 77.0 °F 50.0 °F 39% 30.21 in - North 6.9 mph - N/A   Clear
4:50 PM 77.0 °F 50.0 °F 39% 30.21 in - NNW 5.8 mph - N/A   Clear
5:00 PM 77 °F 51 °F 29% 30.22 in 18 mi Calm Calm - -   Partly Cloudy
5:20 PM 77.0 °F 50.0 °F 39% 30.21 in - North 8.1 mph - N/A   Clear
5:50 PM 77.0 °F 48.2 °F 36% 30.21 in - North 6.9 mph - N/A   Clear
6:00 PM 77 °F 49 °F 27% 30.20 in 19 mi Calm Calm - -  
6:20 PM 77.0 °F 48.2 °F 36% 30.21 in - North 4.6 mph - N/A   Clear
6:50 PM 77.0 °F 48.2 °F 36% 30.18 in - NE 5.8 mph - N/A   Clear
7:00 PM 77 °F 50 °F 28% 30.20 in 22 mi Calm Calm - -  
7:20 PM 75.2 °F 50.0 °F 41% 30.18 in - NNE 6.9 mph - N/A   Clear
7:50 PM 75.2 °F 51.8 °F 44% 30.18 in - North 5.8 mph - N/A   Clear
8:00 PM 74 °F 52 °F 36% 30.20 in 19 mi Calm Calm - -   Scattered Clouds
8:20 PM 75.2 °F 51.8 °F 44% 30.21 in - NNW 6.9 mph - N/A   Clear
8:50 PM 73.4 °F 51.8 °F 47% 30.21 in - North 5.8 mph - N/A   Clear
9:00 PM 73 °F 53 °F 39% 30.20 in 22 mi Calm Calm - -   Overcast
9:20 PM 73.4 °F 51.8 °F 47% 30.21 in - North 5.8 mph - N/A   Clear
10:00 PM 71 °F 54 °F 44% 30.21 in 19 mi Calm Calm - -   Mostly Cloudy
10:20 PM 71.6 °F 53.6 °F 53% 30.21 in - NE 5.8 mph - N/A   Clear
10:50 PM 69.8 °F 55.4 °F 60% 30.21 in - NE 5.8 mph - N/A   Clear
11:00 PM 69 °F 54 °F 50% 30.21 in 14 mi Calm Calm - -   Scattered Clouds
11:50 PM 66.2 °F 53.6 °F 64% 30.21 in - East 6.9 mph - N/A   Clear